CW1074 Weather Reports


time (UTC)temp
C
wind
direction
speed
KPH
gust
KPH
rain 1hr
cm
rain 24hr
cm
rain mn
cm
humidity
%
barometer
mb
20260902200017 12 0.0 0.0 0.00 0.03 0.00 73 1011.6
20260902195018 11 0.0 0.0 0.00 0.03 0.00 73 1011.7
20260902194037 12 0.0 0.0 0.00 0.03 0.00 75 1011.6
20260902193017 11 0.0 0.0 0.00 0.03 0.00 79 1011.6
20260902192017 10 0.0 0.0 0.00 0.03 0.00 83 1011.5
20260902191038 10 0.0 0.0 0.00 0.03 0.00 84 1011.4
20260902190017 9 0.0 0.0 0.00 0.03 0.00 86 1011.4
20260902185017 8 0.0 0.0 0.00 0.03 0.00 87 1011.2
20260902184017 8 0.0 0.0 0.00 0.03 0.00 90 1011.2
20260902183017 7 0.0 0.0 0.00 0.03 0.00 91 1011.0
20260902182017 7 0.0 0.0 0.00 0.03 0.00 94 1010.9
20260902181018 7 0.0 0.0 0.00 0.03 0.00 95 1010.7
20260902180018 6 0.0 0.0 0.00 0.03 0.00 95 1010.5
20260902175017 6 0.0 0.0 0.00 0.03 0.00 95 1010.5
20260902174017 5 0.0 0.0 0.00 0.03 0.00 95 1010.3
20260902173017 5 0.0 0.0 0.00 0.03 0.00 94 1010.2
20260902172016 3 0.0 0.0 0.00 0.03 0.00 94 1010.1
20260902171017 3 0.0 0.0 0.00 0.03 0.00 94 1010.1
20260902170018 2 0.0 0.0 0.00 0.03 0.00 94 1009.9
20260902165016 2 0.0 0.0 0.00 0.03 0.00 94 1009.8
20260902164017 1 0.0 0.0 0.00 0.03 0.00 94 1009.6
20260902163036 1 0.0 0.0 0.00 0.03 0.00 94 1009.7
20260902162016 1 0.0 0.0 0.00 0.03 0.00 93 1009.6
20260902161016 1 0.0 0.0 0.00 0.03 0.00 93 1009.4
20260902160016 0 0.0 0.0 0.00 0.03 0.00 93 1009.2
20260902155016 0 0.0 0.0 0.00 0.03 0.00 93 1009.2
20260902154036 0 0.0 0.0 0.00 0.03 0.00 93 1009.0
20260902153016 0 0.0 0.0 0.00 0.03 0.00 93 1009.1
20260902152016 0 0.0 0.0 0.00 0.03 0.00 93 1009.1
20260902151016 1 0.0 0.0 0.00 0.03 0.00 93 1008.9
20260902150015 1 0.0 0.0 0.00 0.03 0.00 93 1008.9
20260902145016 1 0.0 0.0 0.00 0.03 0.00 93 1008.9
20260902144015 1 0.0 0.0 0.00 0.03 0.00 93 1008.8
20260902143016 1 0.0 0.0 0.00 0.03 0.00 99 1008.9
20260902142015 1 0.0 0.0 0.00 0.03 0.00 93 1008.9
20260902141015 1 0.0 0.0 0.00 0.03 0.00 93 1008.7
20260902140015 1 0.0 0.0 0.00 0.03 0.00 93 1008.5
20260902135016 1 0.0 0.0 0.00 0.03 0.00 93 1008.6
20260902134015 1 0.0 0.0 0.00 0.03 0.00 92 1008.5
20260902133015 1 0.0 0.0 0.00 0.03 0.00 93 1008.3
20260902132015 1 0.0 0.0 0.00 0.03 0.00 92 1008.2
20260902131016 2 0.0 0.0 0.00 0.03 0.00 93 1008.2
20260902130015 2 0.0 0.0 0.00 0.03 0.00 93 1008.2
20260902125035 2 0.0 0.0 0.00 0.03 0.00 93 1007.8
20260902124017 2 0.0 0.0 0.00 0.03 0.00 92 1007.7
20260902123017 2 0.0 0.0 0.00 0.03 0.00 93 1007.7
20260902122017 2 0.0 0.0 0.00 0.03 0.00 93 1007.6
20260902121017 2 0.0 0.0 0.00 0.03 0.00 93 1007.7
20260902120018 2 0.0 0.0 0.00 0.03 0.00 93 1007.6
20260902115017 2 0.0 0.0 0.00 0.03 0.00 93 1007.6
20260902114017 2 0.0 0.0 0.00 0.03 0.00 92 1007.6
20260902113017 2 0.0 0.0 0.00 0.03 0.00 92 1007.5
20260902112037 2 0.0 0.0 0.00 0.03 0.00 92 1007.5
20260902111017 1 0.0 0.0 0.00 0.03 0.00 92 1007.5
20260902110017 2 0.0 0.0 0.00 0.03 0.00 92 1007.6
20260902105017 2 0.0 0.0 0.00 0.03 0.00 92 1007.6
20260902104017 2 0.0 0.0 0.00 0.03 0.00 92 1007.6
20260902103017 2 0.0 0.0 0.00 0.03 0.00 92 1007.6
20260902102017 2 0.0 0.0 0.00 0.03 0.00 92 1007.6
20260902101017 2 0.0 0.0 0.00 0.03 0.00 92 1007.6
20260902100017 2 0.0 0.0 0.00 0.03 0.00 91 1007.6
20260902095017 2 0.0 0.0 0.00 0.03 0.00 91 1007.6
20260902094017 2 0.0 0.0 0.00 0.03 0.00 91 1007.6
20260902093016 2 0.0 0.0 0.00 0.03 0.00 91 1007.5
20260902092017 2 0.0 0.0 0.00 0.03 0.00 91 1007.5
20260902091016 3 0.0 0.0 0.00 0.03 0.00 91 1007.5
20260902090017 3 0.0 0.0 0.00 0.03 0.00 91 1007.5
20260902085017 3 0.0 0.0 0.00 0.03 0.00 91 1007.4
20260902084016 3 0.0 0.0 0.00 0.03 0.00 91 1007.5
20260902083036 3 0.0 0.0 0.00 0.03 0.00 91 1007.4
20260902082017 3 0.0 0.0 0.00 0.03 0.00 91 1007.4
20260902081036 3 0.0 0.0 0.00 0.03 0.00 90 1007.3
20260902080016 4 0.0 0.0 0.00 0.03 0.03 90 1007.3
20260902075017 4 0.0 0.0 0.00 0.03 0.03 90 1007.3
20260902074017 5 0.0 0.0 0.00 0.03 0.03 90 1007.4
20260902073017 5 0.0 0.0 0.00 0.03 0.03 90 1007.4
20260902072017 5 0.0 0.0 0.00 0.03 0.03 90 1007.3
20260902071017 5 0.0 0.0 0.00 0.03 0.03 90 1007.3
20260902070017 5 0.0 0.0 0.00 0.03 0.03 90 1007.2
20260902065017 5 0.0 0.0 0.00 0.03 0.03 90 1007.2
20260902064017 6 0.0 0.0 0.00 0.03 0.03 89 1007.1
20260902063016 6 0.0 0.0 0.00 0.03 0.03 89 1007.0
20260902062016 6 0.0 0.0 0.00 0.03 0.03 89 1007.0
20260902061017 6 0.0 0.0 0.00 0.03 0.03 89 1006.9
20260902060017 7 0.0 0.0 0.00 0.03 0.03 88 1006.8
20260902055018 7 0.0 0.0 0.00 0.03 0.03 87 1006.8
20260902054016 8 0.0 0.0 0.00 0.03 0.03 87 1006.8
20260902053016 8 0.0 0.0 0.00 0.03 0.03 86 1006.7
20260902052016 8 0.0 0.0 0.00 0.03 0.03 86 1006.7
20260902051016 9 0.0 0.0 0.00 0.03 0.03 85 1006.6
20260902050036 10 0.0 0.0 0.00 0.03 0.03 84 1006.5
20260902045017 10 0.0 0.0 0.00 0.03 0.03 84 1006.5
20260902044036 10 0.0 0.0 0.00 0.03 0.03 83 1006.5
20260902043037 11 0.0 0.0 0.03 0.03 0.03 82 1006.4
20260902042016 11 0.0 0.0 0.03 0.03 0.03 81 1006.6
20260902041016 11 0.0 0.0 0.03 0.03 0.03 80 1006.6
20260902040057 12 0.0 0.0 0.03 0.03 0.03 78 1006.6
20260902035016 12 0.0 0.0 0.03 0.03 0.03 75 1006.6
20260902034016 12 0.0 0.0 0.03 0.03 0.03 74 1006.5
20260902033016 12 0.0 0.0 0.00 0.00 0.00 73 1006.5
20260902032017 12 0.0 0.0 0.00 0.00 0.00 72 1006.4
20260902031016 12 0.0 0.0 0.00 0.00 0.00 72 1006.4
20260902030016 12 0.0 0.0 0.00 0.00 0.00 70 1006.3
20260902025016 12 0.0 0.0 0.00 0.00 0.00 69 1006.2
20260902024016 12 0.0 4.8 0.00 0.00 0.00 68 1006.3
20260902023016 12 0.0 0.0 0.00 0.00 0.00 69 1006.3
20260902022016 13 0.0 3.2 0.00 0.00 0.00 69 1006.3
20260902021036 13 135 1.6 4.8 0.00 0.00 0.00 67 1006.4
20260902020056 13 113 1.6 4.8 0.00 0.00 0.00 67 1006.4
20260902015036 13 0.0 1.6 0.00 0.00 0.00 67 1006.4
20260902014015 13 0.0 1.6 0.00 0.00 0.00 69 1006.3
20260902013016 13 0.0 3.2 0.00 0.00 0.00 67 1006.4
20260902012036 13 135 1.6 8.0 0.00 0.00 0.00 67 1006.4
20260902011015 13 135 1.6 8.0 0.00 0.00 0.00 69 1006.4
20260902010015 13 0.0 0.0 0.00 0.00 0.00 67 1006.5
20260902005015 13 0.0 3.2 0.00 0.00 0.00 68 1006.5
20260902004016 13 135 1.6 8.0 0.00 0.00 0.00 66 1006.5
20260902003016 13 135 1.6 6.4 0.00 0.00 0.00 66 1006.5
20260902002015 13 0.0 6.4 0.00 0.00 0.00 65 1006.5
20260902001015 13 0.0 0.0 0.00 0.00 0.00 62 1006.5
20260902000016 13 0.0 3.2 0.00 0.00 0.00 62 1006.5
20260901235016 13 248 1.6 4.8 0.00 0.00 0.00 62 1006.6
20260901234016 13 0.0 3.2 0.00 0.03 0.00 61 1006.7
20260901233015 13 0.0 4.8 0.00 0.03 0.00 64 1006.7
20260901232017 13 0.0 3.2 0.00 0.03 0.00 68 1006.6
20260901231037 12 0.0 0.0 0.00 0.03 0.00 68 1006.6
20260901230017 12 158 1.6 8.0 0.00 0.03 0.00 67 1006.7
20260901225037 12 0.0 3.2 0.00 0.03 0.00 66 1006.8
20260901224017 12 0.0 4.8 0.00 0.03 0.00 67 1006.9
20260901223017 12 158 1.6 6.4 0.00 0.03 0.00 66 1007.0
20260901222017 12 158 1.6 4.8 0.00 0.03 0.00 66 1007.0
20260901221017 12 0.0 0.0 0.00 0.03 0.00 69 1007.1
20260901220037 12 0.0 6.4 0.00 0.03 0.00 68 1007.2
20260901215017 12 0.0 4.8 0.00 0.03 0.00 67 1007.3
20260901214017 12 0.0 3.2 0.00 0.03 0.00 67 1007.4
20260901213017 12 0.0 3.2 0.00 0.03 0.00 68 1007.4
20260901212017 13 0.0 0.0 0.00 0.03 0.00 64 1007.5
20260901211017 13 0.0 1.6 0.00 0.03 0.00 65 1007.5
20260901210017 13 0.0 6.4 0.00 0.03 0.00 65 1007.6
20260901205017 12 0.0 4.8 0.00 0.03 0.00 65 1007.7
20260901204017 12 0.0 3.2 0.00 0.03 0.00 67 1007.7
20260901203038 12 0.0 0.0 0.00 0.03 0.00 67 1007.8
20260901202017 11 0.0 0.0 0.00 0.03 0.00 67 1007.8
20260901201016 11 0.0 0.0 0.00 0.03 0.00 65 1007.8